TimeCDT,TemperatureF,Dew PointF,Humidity,Sea Level PressureIn,VisibilityMPH,Wind Direction,Wind SpeedMPH,Gust SpeedMPH,PrecipitationIn,Events,Conditions,WindDirDegrees,DateUTC
12:15 AM,86.0,66.2,51,29.99,10.0,SSE,11.5,17.3,N/A,,Clear,160,2013-07-08 05:15:00
12:35 AM,84.2,66.2,55,30.00,10.0,SSE,12.7,17.3,N/A,,Clear,160,2013-07-08 05:35:00
12:55 AM,84.2,66.2,55,30.00,10.0,SSE,13.8,18.4,N/A,,Clear,150,2013-07-08 05:55:00
1:15 AM,82.4,66.2,58,30.00,10.0,SSE,12.7,19.6,N/A,,Clear,160,2013-07-08 06:15:00
1:35 AM,82.4,66.2,58,30.00,10.0,SSE,12.7,-,N/A,,Clear,150,2013-07-08 06:35:00
1:55 AM,82.4,66.2,58,30.01,10.0,SSE,11.5,-,N/A,,Clear,160,2013-07-08 06:55:00
2:15 AM,82.4,68.0,62,30.00,10.0,SSE,8.1,17.3,N/A,,Clear,150,2013-07-08 07:15:00
2:35 AM,80.6,68.0,65,30.01,10.0,SSE,8.1,-,N/A,,Clear,160,2013-07-08 07:35:00
2:55 AM,80.6,68.0,65,30.01,10.0,SSE,9.2,-,N/A,,Clear,150,2013-07-08 07:55:00
3:15 AM,80.6,68.0,65,30.01,10.0,SSE,10.4,-,N/A,,Clear,150,2013-07-08 08:15:00
3:35 AM,80.6,68.0,65,30.01,10.0,SE,11.5,-,N/A,,Clear,140,2013-07-08 08:35:00
3:55 AM,80.6,68.0,65,30.02,10.0,SSE,9.2,-,N/A,,Clear,160,2013-07-08 08:55:00
4:15 AM,78.8,68.0,69,30.02,10.0,SSE,6.9,-,N/A,,Clear,150,2013-07-08 09:15:00
4:35 AM,78.8,68.0,69,30.03,10.0,SSE,9.2,-,N/A,,Clear,160,2013-07-08 09:35:00
4:55 AM,78.8,68.0,69,30.03,10.0,SSE,9.2,-,N/A,,Clear,150,2013-07-08 09:55:00
5:15 AM,78.8,68.0,69,30.04,10.0,SSE,12.7,-,N/A,,Clear,160,2013-07-08 10:15:00
5:47 AM,78.8,69.8,74,30.05,13.0,SSE,11.5,-,N/A,,Clear,160,2013-07-08 10:47:00
5:55 AM,78.8,68.0,69,30.05,10.0,SSE,9.2,-,N/A,,Clear,160,2013-07-08 10:55:00
6:47 AM,77.0,69.8,78,30.06,13.0,SSE,10.4,-,N/A,,Partly Cloudy,160,2013-07-08 11:47:00
8:57 AM,80.6,71.6,74,30.10,13.0,South,10.4,18.4,N/A,,Mostly Cloudy,180,2013-07-08 13:57:00
9:52 AM,82.4,71.6,70,30.10,13.0,South,10.4,-,N/A,,Mostly Cloudy,180,2013-07-08 14:52:00
10:47 AM,86.0,69.8,58,30.09,13.0,South,10.4,-,N/A,,Mostly Cloudy,180,2013-07-08 15:47:00
11:50 AM,86.0,69.8,58,30.09,15.0,South,8.1,-,N/A,,Mostly Cloudy,180,2013-07-08 16:50:00
12:47 PM,89.6,69.8,52,30.08,13.0,South,6.9,-,N/A,,Scattered Clouds,190,2013-07-08 17:47:00
1:55 PM,91.4,68.0,46,30.06,15.0,SE,11.5,16.1,N/A,,Scattered Clouds,130,2013-07-08 18:55:00
2:47 PM,91.4,66.2,43,30.06,15.0,SSE,6.9,13.8,N/A,,Mostly Cloudy,150,2013-07-08 19:47:00
4:47 PM,95.0,64.4,36,30.02,20.0,South,11.5,16.1,N/A,,Scattered Clouds,170,2013-07-08 21:47:00
4:50 PM,95.0,64.4,36,30.03,15.0,SSE,11.5,16.1,N/A,,Scattered Clouds,160,2013-07-08 21:50:00
5:53 PM,93.2,64.4,38,30.00,20.0,SSE,15.0,19.6,N/A,,Mostly Cloudy,150,2013-07-08 22:53:00
6:47 PM,91.4,66.2,43,30.00,20.0,South,13.8,24.2,N/A,,Scattered Clouds,170,2013-07-08 23:47:00
7:55 PM,91.4,66.2,43,30.01,20.0,SSE,13.8,18.4,N/A,,Partly Cloudy,160,2013-07-09 00:55:00
10:15 PM,87.8,62.6,43,30.06,10.0,South,9.2,-,N/A,,Clear,180,2013-07-09 03:15:00
10:35 PM,86.0,62.6,45,30.07,10.0,South,8.1,-,N/A,,Clear,170,2013-07-09 03:35:00
10:55 PM,86.0,62.6,45,30.08,10.0,South,6.9,-,N/A,,Clear,190,2013-07-09 03:55:00
11:15 PM,86.0,62.6,45,30.08,10.0,South,10.4,-,N/A,,Clear,190,2013-07-09 04:15:00
11:35 PM,86.0,59.0,40,30.08,10.0,SSW,10.4,-,N/A,,Clear,200,2013-07-09 04:35:00
11:55 PM,86.0,57.2,37,30.08,10.0,South,8.1,-,N/A,,Clear,190,2013-07-09 04:55:00